Weather History for Toledo Metcalf, OH

Change the Weather History Date:

Friday, January 18, 2013

  Actual Average (KTOL) Record (KTOL)
Temperature  
Mean Temperature 28 °F 25 °F  
Max Temperature 36 °F 32 °F 62 °F (1996)
Min Temperature 21 °F 18 °F -16 °F (1994)
Degree Days  
Heating Degree Days 36 40  
Month to date heating degree days 711  
Since 1 July heating degree days 3036  
Cooling Degree Days 0 0  
Month to date cooling degree days 0  
Year to date cooling degree days 0  
Moisture  
Dew Point 17 °F    
Average Humidity 62    
Maximum Humidity 82    
Minimum Humidity 52    
Precipitation  
Precipitation 0.00 in 0.06 in 0.28 in (1975)
Month to date precipitation 1.26  
Year to date precipitation 1.26  
Snow  
Snow 0.00 in 0.40 in - ()
Month to date snowfall 6.5  
Since 1 July snowfall 16.0  
Snow Depth -    
Sea Level Pressure  
Sea Level Pressure 30.32 in    
Wind  
Wind Speed 10 mph (SW)    
Max Wind Speed 21 mph    
Max Gust Speed 33 mph    
Visibility 10 miles    
Events      
T = Trace of Precipitation, MM = Missing Value Source: NWS Daily Summary

Daily Weather History Graph

Daily Weather History Graph

Search for Another Location

Airport:

Trip Planner

Search our weather history database for the weather conditions in past years. The results will help you decide how hot, cold, wet, or windy it might be!

Date:

Astronomy

Jan. 18, 2013 Rise Set
Actual Time 7:56 AM EST 5:32 PM EST
Civil Twilight 7:26 AM EST 6:03 PM EST
Nautical Twilight 6:52 AM EST 6:37 PM EST
Astronomical Twilight 6:19 AM EST 7:10 PM EST
Moon 11:28 AM EST (1/18) 12:28 AM EST (1/18)
Length of Visible Light 10h 36m
Length of Day
9h 36m
Waxing Crescent, 47% of the Moon is Illuminated
Jan 18
Waxing Crescent
Jan 18
First Quarter
Jan 26
Full
Feb 3
Last Quarter
Feb 10
New

Hourly Weather History & Observations

Time (EST) Temp. Windchill Dew Point Humidity Pressure Visibility Wind Dir Wind Speed Gust Speed Precip Events Conditions
12:53 AM 21.9 °F 14.5 °F 9.0 °F 58% 30.39 in 10.0 mi West 5.8 mph - N/A   Overcast
1:53 AM 21.9 °F 15.7 °F 12.0 °F 66% 30.41 in 10.0 mi SW 4.6 mph - N/A   Overcast
2:53 AM 23.0 °F 15.8 °F 12.9 °F 65% 30.43 in 10.0 mi WSW 5.8 mph - N/A   Overcast
3:53 AM 24.1 °F 16.0 °F 15.1 °F 69% 30.45 in 10.0 mi WSW 6.9 mph - N/A   Overcast
4:53 AM 24.1 °F 18.2 °F 16.0 °F 71% 30.44 in 10.0 mi WSW 4.6 mph - N/A   Overcast
5:53 AM 23.0 °F 18.4 °F 16.0 °F 74% 30.45 in 10.0 mi SW 3.5 mph - N/A   Overcast
6:53 AM 23.0 °F 18.4 °F 17.1 °F 78% 30.45 in 10.0 mi SSW 3.5 mph - N/A   Overcast
7:53 AM 21.9 °F 15.7 °F 17.1 °F 82% 30.47 in 10.0 mi SSW 4.6 mph - N/A   Partly Cloudy
8:53 AM 23.0 °F 13.1 °F 17.1 °F 78% 30.48 in 10.0 mi SW 9.2 mph - N/A   Partly Cloudy
9:53 AM 26.1 °F 16.2 °F 16.0 °F 66% 30.48 in 10.0 mi SW 10.4 mph - N/A   Overcast
10:53 AM 28.0 °F 18.1 °F 17.1 °F 63% 30.47 in 10.0 mi SSW 11.5 mph - N/A   Scattered Clouds
11:53 AM 30.0 °F 19.1 °F 17.1 °F 59% 30.43 in 10.0 mi SSW 15.0 mph - N/A   Overcast
12:53 PM 30.9 °F 19.8 °F 17.1 °F 57% 30.38 in 10.0 mi SW 16.1 mph - N/A   Overcast
1:53 PM 30.9 °F 19.4 °F 18.0 °F 59% 30.33 in 10.0 mi SSW 17.3 mph 24.2 mph N/A   Clear
2:53 PM 33.1 °F 23.0 °F 19.0 °F 56% 30.31 in 10.0 mi SSW 15.0 mph - N/A   Partly Cloudy
3:53 PM 34.0 °F 24.2 °F 19.0 °F 54% 30.26 in 10.0 mi SSW 15.0 mph 25.3 mph N/A   Clear
4:53 PM 35.1 °F 24.5 °F 19.9 °F 54% 30.23 in 10.0 mi SSW 18.4 mph 25.3 mph N/A   Clear
5:53 PM 34.0 °F 23.4 °F 19.9 °F 56% 30.21 in 10.0 mi SSW 17.3 mph - N/A   Clear
6:53 PM 34.0 °F 23.8 °F 19.0 °F 54% 30.18 in 10.0 mi South 16.1 mph 25.3 mph N/A   Scattered Clouds
7:53 PM 34.0 °F 22.7 °F 19.0 °F 54% 30.14 in 10.0 mi SSW 19.6 mph 29.9 mph N/A   Clear
8:53 PM 34.0 °F 22.4 °F 19.9 °F 56% 30.11 in 10.0 mi South 20.7 mph 33.4 mph N/A   Clear
9:53 PM 36.0 °F 25.0 °F 19.9 °F 52% 30.09 in 10.0 mi SSW 20.7 mph 31.1 mph N/A   Clear
10:53 PM 36.0 °F 26.3 °F 21.0 °F 55% 30.09 in 10.0 mi SW 16.1 mph 25.3 mph N/A   Clear
11:53 PM 36.0 °F 25.6 °F 23.0 °F 59% 30.07 in 10.0 mi SW 18.4 mph 26.5 mph N/A   Clear